TimeCST,TemperatureF,Dew PointF,Humidity,Sea Level PressureIn,VisibilityMPH,Wind Direction,Wind SpeedMPH,Gust SpeedMPH,PrecipitationIn,Events,Conditions,WindDirDegrees,DateUTC
12:15 AM,24.8,21.2,86,30.16,10.0,ENE,11.5,-,N/A,,Overcast,70,2013-02-22 06:15:00
1:15 AM,24.8,21.2,86,30.14,10.0,ENE,11.5,-,N/A,,Mostly Cloudy,60,2013-02-22 07:15:00
1:35 AM,24.8,21.2,86,30.12,10.0,ENE,11.5,17.3,N/A,,Scattered Clouds,60,2013-02-22 07:35:00
1:55 AM,24.8,21.2,86,30.11,10.0,ENE,11.5,-,N/A,,Mostly Cloudy,60,2013-02-22 07:55:00
2:15 AM,26.6,21.2,80,30.10,10.0,ENE,12.7,-,N/A,,Overcast,60,2013-02-22 08:15:00
2:35 AM,26.6,21.2,80,30.09,10.0,ENE,12.7,-,N/A,,Mostly Cloudy,60,2013-02-22 08:35:00
2:55 AM,26.6,21.2,80,30.08,10.0,ENE,10.4,-,N/A,,Mostly Cloudy,70,2013-02-22 08:55:00
3:15 AM,26.6,21.2,80,30.07,7.0,ENE,12.7,17.3,N/A,Snow,Light Snow,70,2013-02-22 09:15:00
3:35 AM,26.6,21.2,80,30.05,0.8,East,12.7,19.6,N/A,Snow,Light Snow,80,2013-02-22 09:35:00
3:55 AM,26.6,23.0,86,30.03,0.5,ENE,13.8,-,N/A,Snow,Light Snow,70,2013-02-22 09:55:00
4:15 AM,24.8,23.0,93,30.03,0.5,ENE,11.5,-,N/A,Snow,Snow,70,2013-02-22 10:15:00
4:35 AM,24.8,23.0,93,30.00,0.2,ENE,15.0,-,N/A,Snow,Snow,60,2013-02-22 10:35:00
4:55 AM,24.8,23.0,93,29.99,0.2,ENE,15.0,-,N/A,Snow,Snow,60,2013-02-22 10:55:00
5:15 AM,24.8,23.0,93,29.99,0.5,ENE,13.8,18.4,N/A,Snow,Snow,70,2013-02-22 11:15:00
5:35 AM,26.6,23.0,86,29.97,0.2,ENE,13.8,-,N/A,Snow,Snow,60,2013-02-22 11:35:00
5:55 AM,26.6,23.0,86,29.96,0.5,ENE,11.5,-,N/A,Snow,Snow,70,2013-02-22 11:55:00
6:15 AM,26.6,23.0,86,29.95,0.2,ENE,11.5,-,0.01,Snow,Snow,70,2013-02-22 12:15:00
6:35 AM,26.6,23.0,86,29.94,0.2,ENE,10.4,-,0.01,Snow,Snow,70,2013-02-22 12:35:00
7:15 AM,26.6,24.8,93,29.93,1.0,ENE,10.4,-,N/A,Snow,Light Snow,70,2013-02-22 13:15:00
7:35 AM,28.4,24.8,86,29.93,4.0,East,10.4,-,N/A,Snow,Light Snow,80,2013-02-22 13:35:00
7:55 AM,28.4,24.8,86,29.92,10.0,East,11.5,-,N/A,,Overcast,80,2013-02-22 13:55:00
8:15 AM,28.4,26.6,93,29.92,2.5,East,9.2,-,N/A,Snow,Light Snow,80,2013-02-22 14:15:00
8:35 AM,28.4,26.6,93,29.91,4.0,ENE,9.2,-,N/A,Snow,Light Snow,70,2013-02-22 14:35:00
8:55 AM,28.4,26.6,93,29.90,7.0,ENE,10.4,-,N/A,,Overcast,70,2013-02-22 14:55:00
9:15 AM,30.2,26.6,86,29.89,10.0,ENE,9.2,-,N/A,,Overcast,70,2013-02-22 15:15:00
9:35 AM,30.2,26.6,86,29.89,10.0,ENE,10.4,-,N/A,,Overcast,70,2013-02-22 15:35:00
10:15 AM,30.2,28.4,93,29.88,4.0,East,9.2,-,N/A,,Overcast,80,2013-02-22 16:15:00
10:35 AM,30.2,28.4,93,29.87,4.0,East,10.4,-,N/A,Snow,Light Snow,90,2013-02-22 16:35:00
10:55 AM,32.0,26.6,80,29.88,7.0,ESE,13.8,-,N/A,,Overcast,110,2013-02-22 16:55:00
11:15 AM,32.0,26.6,80,29.88,7.0,ESE,13.8,-,N/A,Snow,Light Snow,110,2013-02-22 17:15:00
11:35 AM,32.0,26.6,80,29.87,5.0,ESE,11.5,-,N/A,Snow,Light Snow,110,2013-02-22 17:35:00
11:55 AM,30.2,26.6,86,29.86,4.0,ESE,11.5,-,N/A,Snow,Light Snow,110,2013-02-22 17:55:00
12:15 PM,32.0,26.6,80,29.86,5.0,East,8.1,-,N/A,Snow,Light Snow,90,2013-02-22 18:15:00
12:35 PM,32.0,26.6,80,29.85,4.0,East,8.1,-,N/A,Snow,Light Snow,90,2013-02-22 18:35:00
12:55 PM,32.0,26.6,80,29.84,3.0,East,8.1,-,N/A,Snow,Light Snow,90,2013-02-22 18:55:00
1:15 PM,32.0,26.6,80,29.84,4.0,East,6.9,-,N/A,Snow,Light Snow,90,2013-02-22 19:15:00
1:35 PM,32.0,26.6,80,29.83,5.0,East,8.1,-,N/A,Snow,Light Snow,80,2013-02-22 19:35:00
1:55 PM,32.0,26.6,80,29.82,5.0,East,8.1,-,N/A,Snow,Light Snow,90,2013-02-22 19:55:00
2:15 PM,32.0,26.6,80,29.81,5.0,East,8.1,-,N/A,Snow,Light Snow,80,2013-02-22 20:15:00
2:35 PM,30.2,26.6,86,29.81,4.0,ENE,8.1,-,N/A,Snow,Light Snow,70,2013-02-22 20:35:00
2:55 PM,30.2,26.6,86,29.81,4.0,East,9.2,-,N/A,Snow,Light Snow,80,2013-02-22 20:55:00
3:15 PM,30.2,26.6,86,29.80,5.0,ENE,6.9,-,N/A,Snow,Light Snow,70,2013-02-22 21:15:00
3:35 PM,30.2,26.6,86,29.81,5.0,East,5.8,-,N/A,Snow,Light Snow,80,2013-02-22 21:35:00
3:55 PM,30.2,26.6,86,29.81,3.0,East,5.8,-,N/A,Snow,Light Snow,80,2013-02-22 21:55:00
4:15 PM,30.2,26.6,86,29.81,1.0,East,5.8,-,N/A,Snow,Light Snow,80,2013-02-22 22:15:00
4:35 PM,30.2,28.4,93,29.81,1.0,ENE,5.8,-,N/A,Snow,Light Snow,70,2013-02-22 22:35:00
4:55 PM,30.2,26.6,86,29.81,1.8,ENE,3.5,-,N/A,Snow,Light Snow,60,2013-02-22 22:55:00
5:15 PM,30.2,26.6,86,29.81,2.5,ENE,3.5,-,N/A,Snow,Light Snow,60,2013-02-22 23:15:00
5:35 PM,30.2,26.6,86,29.81,1.5,ENE,3.5,-,N/A,Snow,Light Snow,60,2013-02-22 23:35:00
5:55 PM,28.4,26.6,93,29.81,1.5,ENE,3.5,-,N/A,Snow,Light Snow,60,2013-02-22 23:55:00
6:15 PM,28.4,26.6,93,29.81,1.5,Calm,Calm,-,N/A,Snow,Light Snow,0,2013-02-23 00:15:00
6:35 PM,28.4,26.6,93,29.81,4.0,Calm,Calm,-,N/A,Snow,Light Snow,0,2013-02-23 00:35:00
6:55 PM,28.4,26.6,93,29.81,4.0,NNE,3.5,-,N/A,Snow,Light Snow,30,2013-02-23 00:55:00
7:15 PM,28.4,26.6,93,29.81,5.0,NNE,3.5,-,N/A,Snow,Light Snow,20,2013-02-23 01:15:00
7:35 PM,28.4,26.6,93,29.81,5.0,NNE,3.5,-,N/A,Snow,Light Snow,30,2013-02-23 01:35:00
7:55 PM,28.4,26.6,93,29.80,1.0,NNE,8.1,-,N/A,Snow,Light Snow,20,2013-02-23 01:55:00
8:15 PM,28.4,24.8,86,29.81,2.5,NNE,5.8,-,N/A,Snow,Light Snow,20,2013-02-23 02:15:00
8:35 PM,26.6,24.8,93,29.81,3.0,NNE,4.6,-,N/A,Snow,Light Snow,30,2013-02-23 02:35:00
8:55 PM,26.6,24.8,93,29.80,3.0,NNE,3.5,-,N/A,Snow,Light Snow,20,2013-02-23 02:55:00
9:15 PM,26.6,24.8,93,29.80,3.0,NNE,4.6,-,N/A,Snow,Light Snow,30,2013-02-23 03:15:00
9:35 PM,26.6,23.0,86,29.80,4.0,NNE,3.5,-,N/A,Snow,Light Snow,30,2013-02-23 03:35:00
9:55 PM,26.6,23.0,86,29.79,4.0,North,3.5,-,N/A,Snow,Light Snow,10,2013-02-23 03:55:00
10:15 PM,26.6,23.0,86,29.79,5.0,Calm,Calm,-,N/A,Snow,Light Snow,0,2013-02-23 04:15:00
10:35 PM,26.6,23.0,86,29.79,3.0,Calm,Calm,-,N/A,Snow,Light Snow,0,2013-02-23 04:35:00
10:55 PM,26.6,23.0,86,29.79,1.8,Calm,Calm,-,N/A,Snow,Light Snow,0,2013-02-23 04:55:00
11:15 PM,26.6,23.0,86,29.79,2.5,Calm,Calm,-,N/A,Snow,Light Snow,0,2013-02-23 05:15:00
11:35 PM,26.6,23.0,86,29.78,3.0,Calm,Calm,-,N/A,Snow,Light Snow,0,2013-02-23 05:35:00
11:55 PM,26.6,23.0,86,29.78,5.0,Calm,Calm,-,N/A,Snow,Light Snow,0,2013-02-23 05:55:00